• MPC Preparation (Info)

  • MPEC 2014-U93 : 2014 UC58

    The following Minor Planet Electronic Circular may be linked-to from your own Web pages, but must not otherwise be redistributed electronically.

    A form allowing access to any MPEC is at the bottom of this page.


    Read MPEC 2014-U92 Read MPEC 2014-U94


    M.P.E.C. 2014-U93                                Issued 2014 Oct. 27, 15:22 UT
    
         The Minor Planet Electronic Circulars contain information on unusual
             minor planets and routine data on comets.  They are published
       on behalf of Commission 20 of the International Astronomical Union by the
              Minor Planet Center, Smithsonian Astrophysical Observatory,
                              Cambridge, MA 02138, U.S.A.
    
                 Prepared using the Tamkin Foundation Computer Network
    
                                  MPC@CFA.HARVARD.EDU
                URL https://www.minorplanetcenter.net/    ISSN 1523-6714
    
                                       2014 UC58
    
    Observations:
         K14U58C* C2014 10 25.58212 03 38 45.408+23 07 07.90         20.4 wLEU093F51
         K14U58C  C2014 10 25.59402 03 38 41.058+23 08 56.91         20.4 wLEU093F51
         K14U58C  C2014 10 25.60590 03 38 36.731+23 10 45.81         20.7 wLEU093F51
         K14U58C KC2014 10 26.25308 03 34 54.72 +24 49 51.5                oEU093291
         K14U58C KC2014 10 26.25384 03 34 54.40 +24 49 58.1                oEU093291
         K14U58C KC2014 10 26.25459 03 34 54.12 +24 50 05.7                oEU093291
         K14U58C KC2014 10 26.32508 03 34 26.14 +25 00 49.3          20.3 VqEU093H21
         K14U58C KC2014 10 26.33162 03 34 23.66 +25 01 49.4          20.8 VqEU093H21
         K14U58C KC2014 10 26.34002 03 34 20.47 +25 03 06.0          20.3 VqEU093H21
         K14U58C  C2014 10 26.42944 03 33 47.73 +25 16 51.4          19.9 VqEU093G96
         K14U58C  C2014 10 26.43555 03 33 45.41 +25 17 47.4          19.7 VqEU093G96
         K14U58C  C2014 10 26.44230 03 33 42.85 +25 18 48.6          19.7 VqEU093G96
         K14U58C  C2014 10 26.44840 03 33 40.52 +25 19 44.2          19.6 VqEU093G96
         K14U58C _C2014 10 26.48820503 33 27.968+25 26 04.52         20.3 RtEU093568
         K14U58C KC2014 10 27.33123803 28 16.70 +27 33 42.7          20.5 VuEU093H21
         K14U58C KC2014 10 27.33235003 28 16.25 +27 33 52.4          20.2 VuEU093H21
         K14U58C KC2014 10 27.33370903 28 15.71 +27 34 04.7          20.3 VuEU093H21
    
    Observer details:
    291 LPL/Spacewatch II.  Observer A. F. Tubbiolo.  1.8-m f/2.7 reflector + CCD.
    568 Mauna Kea.  Observers R. J. Wainscoat, P. Forshay.  Measurers M. Micheli,
        R. J. Wainscoat.  3.6-m Canada-France-Hawaii Telescope + CCD.
    F51 Pan-STARRS 1, Haleakala.  Observers B. Gibson, T. Goggia, N. Primak,
        A. Schultz, M. Willman.  Measurers B. Bolin, K. Chambers, S. Chastel,
        L. Denneau, H. Flewelling, M. Huber, E. Magnier, E. Schunova, R. Wainscoat,
        C. Waters.  1.8-m Ritchey-Chretien + CCD.
    G96 Mt. Lemmon Survey.  Observer E. J. Christensen.  Measurers
        E. J. Christensen, A. R. Gibbs, A. D. Grauer, R. E. Hill, J. A. Johnson,
        R. A. Kowalski, S. M. Larson, F. C. Shelly.  1.5-m reflector + CCD.
    H21 Astronomical Research Observatory, Westfield.  Observers R. Holmes,
        T. Linder.  Measurers L. Buzzi, S. Foglia, T. Vorobjov, T. Linder,
        R. Holmes.  0.61-m f/4.0 astrograph + CCD, 0.76-m f/3.0 astrograph + CCD.
    
    Orbital elements:
    2014 UC58                                                Earth MOID = 0.1371 AU
    Epoch 2014 Dec. 9.0 TT = JDT 2457000.5                  MPC
    M  52.16499              (2000.0)            P               Q
    n   0.68447874     Peri.  333.27185     +0.96620684     -0.08103736
    a   1.2751543      Node    34.25700     +0.23189448     +0.68779105
    e   0.1226523      Incl.   25.76656     -0.11255799     +0.72137121
    P   1.44           H   23.1           G   0.15           U   7
    Residuals in seconds of arc
    141025 F51  0.0   0.2-    141026 H21  0.4+  0.0     141026 G96  0.0   0.1+
    141025 F51  0.1-  0.1-    141026 H21  0.3+  0.3+    141026 568  0.1+  0.0
    141025 F51  0.1-  0.3+    141026 H21  0.1+  0.0     141027 H21  0.1-  0.1+
    141026 291  0.3+  0.1+    141026 G96  0.1+  0.1-    141027 H21  0.2-  0.2-
    141026 291  0.2-  0.4-    141026 G96  0.1+  0.2+    141027 H21  0.2-  0.2-
    141026 291  0.2-  0.3+    141026 G96  0.2+  0.0
    
    Ephemeris:
    2014 UC58                a,e,i = 1.28, 0.12, 26                  q = 1.1188
    Date    TT    R. A. (2000) Decl.     Delta      r     Elong.  Phase     V
    2014 09 27    04 50 33.3 -23 54 30   0.2741  1.1189   108.2    58.3    22.6
    ...
    2014 10 12    04 31 34.8 -06 57 49   0.1901  1.1235   127.3    45.0    21.5
    ...
    2014 10 20    04 06 14.0 +09 09 17   0.1602  1.1285   143.4    31.8    20.7
    ...
    2014 10 26    03 36 22.3 +24 11 11   0.1522  1.1334   154.4    22.3    20.4
    2014 10 27    03 30 21.4 +26 43 43   0.1524  1.1343   155.4    21.4    20.3
    2014 10 28    03 24 02.5 +29 13 59   0.1530  1.1352   156.0    20.8    20.3
    ...
    2014 11 03    02 40 27.6 +42 33 26   0.1656  1.1413   152.3    23.9    20.6
    ...
    2014 11 11    01 34 31.5 +53 43 08   0.2008  1.1507   139.7    33.8    21.3
    ...
    2014 11 26    00 02 45.1 +60 10 04   0.2945  1.1716   122.4    45.3    22.5
    
    A. U. Tomatic                (C) Copyright 2014 MPC           M.P.E.C. 2014-U93
    

    Read MPEC 2014-U92 Read MPEC 2014-U94


    MPEC number:

    Enter an MPEC number in one of the following forms:

    • 1997-B01 (the full form)
    • J97B01 (the packed version of the full form)
    • B01 (the abbreviated form)